Location: Newark
(22.3060°N, 114.2134°E)
Time: 00:42:21
(UTC+00:00)

Explorer 11/Cluster Stage 4 - Pass Details

Date: 06 August 2021
Orbit: 467 x 1256 km, 28.8° (Epoch: 27 September)

Event Time Altitude Azimuth Distance (km) Brightness Sun altitude
Rises 03:55:13 0° 289° (WNW) 4,146 10.2 80.2°
Reaches altitude 10° 03:58:05 10° 289° (WNW) 3,213 9.7 80.8°
Maximum altitude 04:06:24 90° 181° (S) 1,240 10.3 82.2°
Drops below altitude 10° 04:14:13 10° 111° (ESE) 3,041 9.8 83.3°
Sets 04:16:53 0° 111° (ESE) 3,915 10.2 83.6°
